This is the latest recevied weather packets stored in our database for station/object N3OZD-10. If no packets are shown the sender has not sent any weather packets the latest 10 day(s).
| Time | Temp. | Humidity | Pressure | Rain* | Wind** | Luminosity | Snow |
|---|---|---|---|---|---|---|---|
| 1777383160 | 12.22° C | 74% | 1021.1 hPa | 0 mm | - | - | - |
| 1777382858 | 12.22° C | 75% | 1021.1 hPa | 0 mm | - | - | - |
| 1777382565 | 12.22° C | 75% | 1021 hPa | 0 mm | - | - | - |
| 1777382261 | 12.22° C | 73% | 1021.1 hPa | 0 mm | - | - | - |
| 1777381962 | 12.22° C | 74% | 1021.1 hPa | 0 mm | - | - | - |
| 1777381362 | 11.67° C | 79% | 1021.1 hPa | 0 mm | - | - | - |
| 1777381061 | 11.67° C | 80% | 1021.1 hPa | 0 mm | - | - | - |
| 1777380763 | 11.67° C | 79% | 1021.2 hPa | 0 mm | - | - | - |
| 1777379858 | 11.11° C | 83% | 1021.2 hPa | 0 mm | - | - | - |
| 1777379558 | 11.11° C | 84% | 1021.3 hPa | 0 mm | - | - | - |
| 1777379258 | 10.56° C | 85% | 1021.4 hPa | 0 mm | - | - | - |
| 1777378960 | 10.56° C | 85% | 1021.6 hPa | 0 mm | - | - | - |
| 1777378659 | 10.56° C | 85% | 1021.6 hPa | 0 mm | - | - | - |
| 1777378358 | 10° C | 85% | 1021.7 hPa | 0 mm | - | - | - |
| 1777378058 | 10° C | 85% | 1021.8 hPa | 0 mm | - | - | - |
| 1777377758 | 10° C | 86% | 1021.7 hPa | 0 mm | - | - | - |
| 1777377458 | 10° C | 88% | 1021.6 hPa | 0 mm | - | - | - |
| 1777377162 | 9.44° C | 89% | 1021.7 hPa | 0 mm | - | - | - |
| 1777376860 | 9.44° C | 90% | 1021.4 hPa | 0 mm | - | - | - |
| 1777376558 | 8.89° C | 91% | 1021.5 hPa | 0 mm | - | - | - |
| 1777376261 | 8.89° C | 91% | 1021.5 hPa | 0 mm | - | - | - |
| 1777375958 | 8.33° C | 91% | 1021.5 hPa | 0 mm | - | - | - |
| 1777375662 | 8.33° C | 91% | 1021.7 hPa | 0 mm | - | - | - |
| 1777375362 | 8.33° C | 91% | 1021.5 hPa | 0 mm | - | - | - |
| 1777375058 | 8.33° C | 90% | 1021.7 hPa | 0 mm | - | - | - |
* Rain latest hour (hover to see other rain measurements)
** Current wind speed in m/s (hover to see current wind gust speed)